Location: Lugrin
(46.4033°N, 6.6674°E)
Time: 11:38:48
(UTC+00:00)

Cosmos 1833 Rocket - Pass Details

Date: 18 September 2020
Orbit: 831 x 841 km, 71.0° (Epoch: 24 October)

Event Time Altitude Azimuth Distance (km) Brightness Sun altitude
Rises 21:43:43 0° 329° (NNW) 3,406 6.8 -37.0°
Reaches altitude 10° 21:46:14 10° 323° (NW) 2,468 5.9 -37.3°
Enters shadow 21:49:09 29° 307° (NW) 1,501 4.4 -37.5°
